| time (UTC) | temp F | wind direction | speed MPH | gust MPH | rain 1hr in | rain 24hr in | rain mn in | humidity % | barometer mb |
| 20260506211042 | 78 | 292 | 2.0 | 2.0 | 0.00 | 0.00 | 0.00 | 23 | 1013.4 |
| 20260506210538 | 80 | 236 | 4.0 | 5.0 | 0.00 | 0.00 | 0.00 | 22 | 1013.5 |
| 20260506210035 | 79 | 290 | 4.0 | 5.0 | 0.00 | 0.00 | 0.00 | 23 | 1013.5 |
| 20260506205532 | 78 | 105 | 1.0 | 2.0 | 0.00 | 0.00 | 0.00 | 22 | 1013.6 |
| 20260506205027 | 78 | 189 | 1.0 | 1.0 | 0.00 | 0.00 | 0.00 | 23 | 1013.5 |
| 20260506204525 | 78 | 336 | 2.0 | 2.0 | 0.00 | 0.00 | 0.00 | 23 | 1013.4 |
| 20260506204022 | 78 | 297 | 3.0 | 5.0 | 0.00 | 0.00 | 0.00 | 23 | 1013.6 |
| 20260506203520 | 78 | 287 | 3.0 | 3.0 | 0.00 | 0.00 | 0.00 | 24 | 1013.9 |
| 20260506203016 | 79 | 324 | 2.0 | 2.0 | 0.00 | 0.00 | 0.00 | 25 | 1013.8 |
| 20260506202514 | 78 | 275 | 4.0 | 6.0 | 0.00 | 0.00 | 0.00 | 24 | 1014.0 |
| 20260506202010 | 78 | 281 | 2.0 | 5.0 | 0.00 | 0.00 | 0.00 | 25 | 1014.0 |
| 20260506201508 | 77 | 273 | 1.0 | 1.0 | 0.00 | 0.00 | 0.00 | 25 | 1014.0 |
| 20260506201004 | 78 | 303 | 1.0 | 2.0 | 0.00 | 0.00 | 0.00 | 26 | 1014.0 |
| 20260506200500 | 77 | 258 | 2.0 | 2.0 | 0.00 | 0.00 | 0.00 | 25 | 1014.1 |
| 20260506195956 | 77 | 216 | 4.0 | 5.0 | 0.00 | 0.00 | 0.00 | 25 | 1014.1 |
| 20260506195455 | 77 | 293 | 3.0 | 3.0 | 0.00 | 0.00 | 0.00 | 26 | 1014.1 |
| 20260506194950 | 76 | 184 | 1.0 | 2.0 | 0.00 | 0.00 | 0.00 | 27 | 1014.3 |
| 20260506194448 | 76 | 327 | 1.0 | 1.0 | 0.00 | 0.00 | 0.00 | 27 | 1014.5 |
| 20260506193944 | 76 | 357 | 6.0 | 9.0 | 0.00 | 0.00 | 0.00 | 27 | 1014.5 |
| 20260506193442 | 76 | 306 | 4.0 | 3.0 | 0.00 | 0.00 | 0.00 | 28 | 1014.4 |
| 20260506192938 | 76 | 6 | 0.0 | 1.0 | 0.00 | 0.00 | 0.00 | 28 | 1014.5 |
| 20260506192436 | 76 | 270 | 1.0 | 1.0 | 0.00 | 0.00 | 0.00 | 27 | 1014.5 |
| 20260506191932 | 76 | 331 | 3.0 | 5.0 | 0.00 | 0.00 | 0.00 | 28 | 1014.8 |
| 20260506191429 | 76 | 307 | 4.0 | 6.0 | 0.00 | 0.00 | 0.00 | 28 | 1014.7 |
| 20260506190925 | 75 | 305 | 5.0 | 6.0 | 0.00 | 0.00 | 0.00 | 28 | 1014.9 |
| 20260506190422 | 75 | 228 | 1.0 | 1.0 | 0.00 | 0.00 | 0.00 | 29 | 1014.8 |
| 20260506185919 | 76 | 262 | 3.0 | 3.0 | 0.00 | 0.00 | 0.00 | 27 | 1014.9 |
| 20260506185416 | 75 | 6 | 3.0 | 3.0 | 0.00 | 0.00 | 0.00 | 28 | 1014.9 |
| 20260506184913 | 75 | 302 | 1.0 | 1.0 | 0.00 | 0.00 | 0.00 | 29 | 1015.2 |
| 20260506184410 | 74 | 339 | 2.0 | 2.0 | 0.00 | 0.00 | 0.00 | 30 | 1015.0 |
| 20260506183908 | 75 | 225 | 3.0 | 3.0 | 0.00 | 0.00 | 0.00 | 28 | 1014.8 |
| 20260506183402 | 76 | 250 | 2.0 | 2.0 | 0.00 | 0.00 | 0.00 | 26 | 1015.0 |
| 20260506182900 | 74 | 210 | 1.0 | 1.0 | 0.00 | 0.00 | 0.00 | 28 | 1015.2 |
| 20260506182357 | 73 | 122 | 4.0 | 5.0 | 0.00 | 0.00 | 0.00 | 28 | 1015.3 |
| 20260506181854 | 73 | 122 | 3.0 | 3.0 | 0.00 | 0.00 | 0.00 | 29 | 1015.4 |
| 20260506181352 | 73 | 263 | 1.0 | 2.0 | 0.00 | 0.00 | 0.00 | 30 | 1015.7 |
| 20260506180849 | 73 | 168 | 1.0 | 2.0 | 0.00 | 0.00 | 0.00 | 28 | 1015.4 |
| 20260506180345 | 73 | 5 | 3.0 | 3.0 | 0.00 | 0.00 | 0.00 | 30 | 1015.7 |
| 20260506175842 | 73 | 296 | 3.0 | 3.0 | 0.00 | 0.00 | 0.00 | 28 | 1015.4 |
| 20260506175338 | 74 | 304 | 2.0 | 2.0 | 0.00 | 0.00 | 0.00 | 27 | 1015.5 |
| 20260506174836 | 74 | 139 | 3.0 | 5.0 | 0.00 | 0.00 | 0.00 | 28 | 1015.3 |
| 20260506174333 | 72 | 105 | 0.0 | 1.0 | 0.00 | 0.00 | 0.00 | 30 | 1015.4 |
| 20260506173830 | 72 | 303 | 3.0 | 3.0 | 0.00 | 0.00 | 0.00 | 29 | 1015.7 |
| 20260506173327 | 72 | 312 | 4.0 | 6.0 | 0.00 | 0.00 | 0.00 | 31 | 1015.5 |
| 20260506172824 | 72 | 333 | 3.0 | 5.0 | 0.00 | 0.00 | 0.00 | 32 | 1015.6 |
| 20260506172321 | 70 | 85 | 1.0 | 1.0 | 0.00 | 0.00 | 0.00 | 34 | 1015.4 |
| 20260506171818 | 71 | 200 | 0.0 | 0.0 | 0.00 | 0.00 | 0.00 | 34 | 1015.5 |
| 20260506171315 | 71 | 235 | 1.0 | 1.0 | 0.00 | 0.00 | 0.00 | 34 | 1015.5 |
| 20260506170813 | 71 | 270 | 2.0 | 1.0 | 0.00 | 0.00 | 0.00 | 34 | 1015.3 |
| 20260506170308 | 71 | 30 | 2.0 | 2.0 | 0.00 | 0.00 | 0.00 | 36 | 1015.4 |
| 20260506165808 | 70 | 6 | 1.0 | 1.0 | 0.00 | 0.00 | 0.00 | 36 | 1015.5 |
| 20260506165306 | 70 | 0 | 1.0 | 1.0 | 0.00 | 0.00 | 0.00 | 37 | 1015.3 |
| 20260506164802 | 70 | 8 | 1.0 | 1.0 | 0.00 | 0.00 | 0.00 | 38 | 1015.6 |
| 20260506164258 | 70 | 7 | 1.0 | 2.0 | 0.00 | 0.00 | 0.00 | 38 | 1015.5 |
| 20260506163755 | 69 | 70 | 1.0 | 1.0 | 0.00 | 0.00 | 0.00 | 37 | 1015.3 |
| 20260506163250 | 69 | 297 | 3.0 | 5.0 | 0.00 | 0.00 | 0.00 | 37 | 1015.4 |
| 20260506162746 | 68 | 345 | 2.0 | 2.0 | 0.00 | 0.00 | 0.00 | 37 | 1015.5 |
| 20260506162244 | 68 | 7 | 3.0 | 2.0 | 0.00 | 0.00 | 0.00 | 38 | 1015.2 |
| 20260506161741 | 68 | 21 | 0.0 | 1.0 | 0.00 | 0.00 | 0.00 | 41 | 1015.5 |
| 20260506161239 | 69 | 307 | 3.0 | 3.0 | 0.00 | 0.00 | 0.00 | 39 | 1015.3 |
| 20260506160736 | 69 | 31 | 0.0 | 1.0 | 0.00 | 0.00 | 0.00 | 39 | 1015.4 |
| 20260506160232 | 68 | 357 | 1.0 | 1.0 | 0.00 | 0.00 | 0.00 | 41 | 1015.5 |
| 20260506155731 | 67 | 17 | 2.0 | 2.0 | 0.00 | 0.00 | 0.00 | 41 | 1015.4 |
| 20260506155227 | 67 | 10 | 0.0 | 0.0 | 0.00 | 0.00 | 0.00 | 40 | 1015.3 |
| 20260506153335 | 66 | 182 | 1.0 | 2.0 | 0.00 | 0.00 | 0.00 | 42 | 1015.5 |
| 20260506152832 | 64 | 250 | 0.0 | 0.0 | 0.00 | 0.00 | 0.00 | 44 | 1015.3 |
| 20260506152329 | 65 | 218 | 3.0 | 2.0 | 0.00 | 0.00 | 0.00 | 42 | 1015.3 |
| 20260506151828 | 67 | 129 | 3.0 | 3.0 | 0.00 | 0.00 | 0.00 | 41 | 1015.3 |
| 20260506151324 | 66 | 114 | 1.0 | 1.0 | 0.00 | 0.00 | 0.00 | 41 | 1015.4 |
| 20260506150821 | 66 | 103 | 0.0 | 0.0 | 0.00 | 0.00 | 0.00 | 43 | 1015.3 |
| 20260506150318 | 65 | 127 | 2.0 | 2.0 | 0.00 | 0.00 | 0.00 | 43 | 1015.3 |
| 20260506145815 | 65 | 101 | 1.0 | 1.0 | 0.00 | 0.00 | 0.00 | 43 | 1015.3 |
| 20260506145311 | 64 | 165 | 1.0 | 2.0 | 0.00 | 0.00 | 0.00 | 45 | 1015.2 |
| 20260506144809 | 63 | 159 | 0.0 | 0.0 | 0.00 | 0.00 | 0.00 | 46 | 1015.3 |
| 20260506144305 | 62 | 159 | 1.0 | 1.0 | 0.00 | 0.00 | 0.00 | 46 | 1015.4 |
| 20260506143803 | 62 | 177 | 1.0 | 1.0 | 0.00 | 0.00 | 0.00 | 46 | 1015.4 |
| 20260506143300 | 62 | 183 | 1.0 | 1.0 | 0.00 | 0.00 | 0.00 | 46 | 1015.4 |
| 20260506142759 | 62 | 184 | 3.0 | 2.0 | 0.00 | 0.00 | 0.00 | 47 | 1015.3 |
| 20260506142256 | 62 | 151 | 1.0 | 1.0 | 0.00 | 0.00 | 0.00 | 47 | 1015.5 |
| 20260506141754 | 62 | 189 | 2.0 | 1.0 | 0.00 | 0.00 | 0.00 | 47 | 1015.3 |
| 20260506141252 | 62 | 116 | 0.0 | 0.0 | 0.00 | 0.00 | 0.00 | 48 | 1015.2 |
| 20260506140750 | 63 | 115 | 1.0 | 1.0 | 0.00 | 0.00 | 0.00 | 48 | 1015.5 |
| 20260506140246 | 63 | 99 | 1.0 | 1.0 | 0.00 | 0.00 | 0.00 | 47 | 1015.4 |
| 20260506135743 | 62 | 91 | 0.0 | 0.0 | 0.00 | 0.00 | 0.00 | 53 | 1015.3 |
| 20260506135239 | 61 | 91 | 0.0 | 0.0 | 0.00 | 0.00 | 0.00 | 59 | 1014.9 |
| 20260506134736 | 59 | 91 | 0.0 | 0.0 | 0.00 | 0.00 | 0.00 | 60 | 1015.2 |
| 20260506134233 | 59 | 91 | 0.0 | 0.0 | 0.00 | 0.00 | 0.00 | 63 | 1015.2 |
| 20260506133730 | 58 | 89 | 0.0 | 0.0 | 0.00 | 0.00 | 0.00 | 63 | 1015.0 |
| 20260506133226 | 57 | 93 | 1.0 | 1.0 | 0.00 | 0.00 | 0.00 | 65 | 1014.9 |
| 20260506132723 | 57 | 92 | 0.0 | 0.0 | 0.00 | 0.00 | 0.00 | 67 | 1015.0 |
| 20260506132221 | 56 | 83 | 0.0 | 0.0 | 0.00 | 0.00 | 0.00 | 68 | 1015.2 |
| 20260506131719 | 55 | 83 | 0.0 | 0.0 | 0.00 | 0.00 | 0.00 | 70 | 1015.0 |
| 20260506131214 | 54 | 83 | 0.0 | 0.0 | 0.00 | 0.00 | 0.00 | 73 | 1014.9 |
| 20260506130711 | 52 | 83 | 0.0 | 0.0 | 0.00 | 0.00 | 0.00 | 76 | 1014.8 |
| 20260506130208 | 51 | 83 | 0.0 | 0.0 | 0.00 | 0.00 | 0.00 | 78 | 1015.0 |
| 20260506125707 | 51 | 83 | 0.0 | 0.0 | 0.00 | 0.00 | 0.00 | 79 | 1014.8 |
| 20260506125204 | 51 | 83 | 1.0 | 1.0 | 0.00 | 0.00 | 0.00 | 80 | 1014.6 |
| 20260506124702 | 51 | 82 | 0.0 | 0.0 | 0.00 | 0.00 | 0.00 | 80 | 1014.8 |
| 20260506124200 | 50 | 83 | 0.0 | 0.0 | 0.00 | 0.00 | 0.00 | 80 | 1014.6 |
| 20260506123657 | 50 | 83 | 0.0 | 0.0 | 0.00 | 0.00 | 0.00 | 80 | 1014.8 |
| 20260506123155 | 50 | 83 | 0.0 | 0.0 | 0.00 | 0.00 | 0.00 | 81 | 1014.7 |
| 20260506122652 | 50 | 83 | 0.0 | 0.0 | 0.00 | 0.00 | 0.00 | 81 | 1014.5 |
| 20260506122150 | 50 | 83 | 0.0 | 0.0 | 0.00 | 0.00 | 0.00 | 79 | 1014.4 |
| 20260506121647 | 51 | 83 | 0.0 | 0.0 | 0.00 | 0.00 | 0.00 | 78 | 1014.5 |
| 20260506121143 | 51 | 83 | 0.0 | 0.0 | 0.00 | 0.00 | 0.00 | 76 | 1014.5 |
| 20260506120641 | 51 | 83 | 0.0 | 0.0 | 0.00 | 0.00 | 0.00 | 77 | 1014.3 |
| 20260506120138 | 51 | 82 | 0.0 | 0.0 | 0.00 | 0.00 | 0.00 | 76 | 1014.5 |
| 20260506115637 | 52 | 83 | 0.0 | 0.0 | 0.00 | 0.00 | 0.00 | 75 | 1014.3 |
| 20260506115134 | 52 | 83 | 0.0 | 0.0 | 0.00 | 0.00 | 0.00 | 74 | 1014.3 |
| 20260506114631 | 52 | 82 | 0.0 | 0.0 | 0.00 | 0.00 | 0.00 | 74 | 1014.3 |
| 20260506114129 | 52 | 82 | 0.0 | 0.0 | 0.00 | 0.00 | 0.00 | 74 | 1014.2 |
| 20260506113628 | 52 | 83 | 0.0 | 0.0 | 0.00 | 0.00 | 0.00 | 75 | 1014.1 |
| 20260506113125 | 52 | 83 | 0.0 | 0.0 | 0.00 | 0.00 | 0.00 | 74 | 1014.0 |
| 20260506112621 | 52 | 82 | 0.0 | 0.0 | 0.00 | 0.00 | 0.00 | 74 | 1014.1 |
| 20260506112118 | 52 | 82 | 0.0 | 0.0 | 0.00 | 0.00 | 0.00 | 72 | 1014.2 |
| 20260506111616 | 53 | 82 | 0.0 | 0.0 | 0.00 | 0.00 | 0.00 | 70 | 1013.9 |
| 20260506111114 | 53 | 82 | 0.0 | 0.0 | 0.00 | 0.00 | 0.00 | 70 | 1014.1 |
| 20260506110611 | 53 | 82 | 0.0 | 0.0 | 0.00 | 0.00 | 0.00 | 69 | 1014.0 |
| 20260506110108 | 53 | 82 | 0.0 | 0.0 | 0.00 | 0.00 | 0.00 | 68 | 1014.1 |
| 20260506105604 | 53 | 82 | 0.0 | 0.0 | 0.00 | 0.00 | 0.00 | 67 | 1014.2 |
| 20260506105101 | 53 | 82 | 0.0 | 0.0 | 0.00 | 0.00 | 0.00 | 66 | 1013.8 |
| 20260506104600 | 53 | 84 | 1.0 | 2.0 | 0.00 | 0.00 | 0.00 | 67 | 1014.0 |
| 20260506104057 | 53 | 85 | 0.0 | 0.0 | 0.00 | 0.00 | 0.00 | 67 | 1014.0 |
| 20260506103554 | 53 | 85 | 0.0 | 0.0 | 0.00 | 0.00 | 0.00 | 65 | 1013.8 |
| 20260506103050 | 53 | 85 | 0.0 | 0.0 | 0.00 | 0.00 | 0.00 | 65 | 1013.8 |
| 20260506102549 | 54 | 85 | 0.0 | 0.0 | 0.00 | 0.00 | 0.00 | 63 | 1013.6 |
| 20260506102046 | 55 | 85 | 0.0 | 0.0 | 0.00 | 0.00 | 0.00 | 62 | 1013.5 |
| 20260506101543 | 55 | 85 | 0.0 | 0.0 | 0.00 | 0.00 | 0.00 | 60 | 1013.6 |
| 20260506101040 | 55 | 84 | 0.0 | 0.0 | 0.00 | 0.00 | 0.00 | 59 | 1013.5 |
| 20260506100538 | 56 | 84 | 0.0 | 0.0 | 0.00 | 0.00 | 0.00 | 57 | 1013.5 |
| 20260506100036 | 55 | 82 | 1.0 | 1.0 | 0.00 | 0.00 | 0.00 | 56 | 1013.5 |
| 20260506095534 | 56 | 317 | 1.0 | 1.0 | 0.00 | 0.00 | 0.00 | 57 | 1013.4 |
| 20260506095030 | 56 | 316 | 0.0 | 0.0 | 0.00 | 0.00 | 0.00 | 55 | 1013.6 |
| 20260506094528 | 57 | 316 | 0.0 | 0.0 | 0.00 | 0.00 | 0.00 | 53 | 1013.4 |
| 20260506094026 | 57 | 316 | 0.0 | 0.0 | 0.00 | 0.00 | 0.00 | 52 | 1013.3 |
| 20260506093524 | 57 | 316 | 0.0 | 0.0 | 0.00 | 0.00 | 0.00 | 51 | 1013.3 |
| 20260506093021 | 57 | 316 | 0.0 | 0.0 | 0.00 | 0.00 | 0.00 | 50 | 1013.1 |
| 20260506092519 | 57 | 316 | 1.0 | 1.0 | 0.00 | 0.00 | 0.00 | 50 | 1013.2 |
| 20260506092015 | 57 | 323 | 1.0 | 1.0 | 0.00 | 0.00 | 0.00 | 50 | 1013.2 |
| 20260506091514 | 56 | 280 | 2.0 | 3.0 | 0.00 | 0.00 | 0.00 | 52 | 1013.2 |
| 20260506091011 | 56 | 330 | 0.0 | 0.0 | 0.00 | 0.00 | 0.00 | 55 | 1013.2 |
| 20260506090509 | 57 | 332 | 0.0 | 0.0 | 0.00 | 0.00 | 0.00 | 54 | 1013.1 |
| 20260506090004 | 57 | 332 | 0.0 | 0.0 | 0.00 | 0.00 | 0.00 | 53 | 1013.2 |
| 20260506085501 | 58 | 307 | 0.0 | 0.0 | 0.00 | 0.00 | 0.00 | 53 | 1013.3 |
| 20260506084958 | 59 | 317 | 1.0 | 0.0 | 0.00 | 0.00 | 0.00 | 52 | 1013.2 |
| 20260506084455 | 59 | 357 | 1.0 | 1.0 | 0.00 | 0.00 | 0.00 | 51 | 1013.3 |
| 20260506083951 | 60 | 355 | 1.0 | 2.0 | 0.00 | 0.00 | 0.00 | 50 | 1013.1 |
| 20260506083448 | 60 | 277 | 1.0 | 2.0 | 0.00 | 0.00 | 0.00 | 50 | 1013.3 |
| 20260506082945 | 60 | 235 | 2.0 | 2.0 | 0.00 | 0.00 | 0.00 | 52 | 1013.3 |
| 20260506082442 | 60 | 241 | 1.0 | 1.0 | 0.00 | 0.00 | 0.00 | 55 | 1013.2 |
| 20260506081938 | 60 | 251 | 1.0 | 1.0 | 0.00 | 0.00 | 0.00 | 55 | 1013.2 |
| 20260506081437 | 60 | 232 | 1.0 | 1.0 | 0.00 | 0.00 | 0.00 | 56 | 1013.2 |
| 20260506080933 | 60 | 232 | 1.0 | 1.0 | 0.00 | 0.00 | 0.00 | 57 | 1013.3 |
| 20260506080430 | 60 | 231 | 1.0 | 2.0 | 0.00 | 0.00 | 0.00 | 57 | 1013.5 |
| 20260506073414 | 60 | 272 | 0.0 | 0.0 | 0.00 | 0.00 | 0.00 | 58 | 1013.4 |
| 20260506072912 | 60 | 272 | 0.0 | 0.0 | 0.00 | 0.00 | 0.00 | 58 | 1013.2 |
| 20260506072409 | 60 | 265 | 0.0 | 0.0 | 0.00 | 0.00 | 0.00 | 57 | 1013.4 |
| 20260506071906 | 60 | 257 | 0.0 | 0.0 | 0.00 | 0.00 | 0.00 | 57 | 1013.5 |
| 20260506071404 | 60 | 271 | 0.0 | 0.0 | 0.00 | 0.00 | 0.00 | 57 | 1013.3 |
| 20260506070901 | 61 | 293 | 0.0 | 0.0 | 0.00 | 0.00 | 0.00 | 56 | 1013.2 |
| 20260506070358 | 61 | 291 | 0.0 | 0.0 | 0.00 | 0.00 | 0.00 | 55 | 1013.3 |
| 20260506062335 | 62 | 313 | 1.0 | 1.0 | 0.00 | 0.19 | 0.19 | 44 | 1013.0 |
| 20260506061831 | 63 | 300 | 3.0 | 3.0 | 0.00 | 0.19 | 0.19 | 43 | 1013.1 |
| 20260506061328 | 63 | 292 | 0.0 | 0.0 | 0.00 | 0.19 | 0.19 | 42 | 1013.1 |
| 20260506060826 | 63 | 308 | 1.0 | 1.0 | 0.00 | 0.19 | 0.19 | 41 | 1013.3 |
| 20260506060324 | 63 | 306 | 3.0 | 3.0 | 0.00 | 0.19 | 0.19 | 41 | 1013.1 |
| 20260506051255 | 65 | 263 | 3.0 | 5.0 | 0.00 | 0.19 | 0.19 | 47 | 1012.8 |
| 20260506050753 | 65 | 301 | 1.0 | 2.0 | 0.00 | 0.19 | 0.19 | 48 | 1012.6 |
| 20260506050250 | 65 | 308 | 3.0 | 3.0 | 0.00 | 0.19 | 0.19 | 47 | 1012.7 |
| 20260506044741 | 66 | 281 | 3.0 | 3.0 | 0.00 | 0.19 | 0.19 | 46 | 1012.6 |
| 20260506044238 | 65 | 328 | 5.0 | 6.0 | 0.00 | 0.19 | 0.19 | 46 | 1012.2 |
| 20260506043736 | 66 | 301 | 2.0 | 2.0 | 0.00 | 0.19 | 0.19 | 45 | 1012.5 |
| 20260506043233 | 65 | 293 | 1.0 | 2.0 | 0.00 | 0.19 | 0.19 | 45 | 1012.2 |
| 20260506042731 | 66 | 293 | 2.0 | 2.0 | 0.00 | 0.19 | 0.19 | 44 | 1012.1 |
| 20260506042229 | 66 | 300 | 0.0 | 1.0 | 0.00 | 0.19 | 0.19 | 44 | 1012.4 |
| 20260506041728 | 66 | 304 | 2.0 | 3.0 | 0.00 | 0.19 | 0.19 | 44 | 1012.2 |
| 20260506041224 | 65 | 242 | 3.0 | 3.0 | 0.00 | 0.19 | 0.19 | 42 | 1011.9 |
| 20260506040722 | 65 | 313 | 1.0 | 1.0 | 0.00 | 0.19 | 0.19 | 41 | 1011.8 |
| 20260506040219 | 65 | 341 | 0.0 | 0.0 | 0.00 | 0.19 | 0.19 | 40 | 1011.8 |
| 20260506035715 | 66 | 262 | 0.0 | 0.0 | 0.00 | 0.19 | 0.19 | 39 | 1011.7 |
| 20260506035213 | 66 | 246 | 1.0 | 1.0 | 0.00 | 0.19 | 0.19 | 38 | 1011.6 |
| 20260506034709 | 66 | 269 | 1.0 | 1.0 | 0.00 | 0.19 | 0.19 | 37 | 1011.5 |
| 20260506034207 | 66 | 278 | 0.0 | 0.0 | 0.00 | 0.19 | 0.19 | 37 | 1011.5 |
| 20260506033704 | 67 | 307 | 1.0 | 1.0 | 0.00 | 0.19 | 0.19 | 36 | 1011.4 |
| 20260506033200 | 67 | 306 | 0.0 | 0.0 | 0.00 | 0.19 | 0.19 | 36 | 1011.3 |
| 20260506032658 | 67 | 304 | 1.0 | 1.0 | 0.00 | 0.19 | 0.19 | 35 | 1011.3 |
| 20260506032155 | 68 | 301 | 2.0 | 2.0 | 0.00 | 0.19 | 0.19 | 34 | 1011.2 |
| 20260506031651 | 68 | 276 | 2.0 | 2.0 | 0.00 | 0.19 | 0.19 | 33 | 1010.9 |
| 20260506031148 | 68 | 330 | 4.0 | 6.0 | 0.00 | 0.19 | 0.19 | 33 | 1011.1 |
| 20260506030647 | 68 | 319 | 2.0 | 3.0 | 0.00 | 0.19 | 0.19 | 32 | 1011.0 |
| 20260506030144 | 68 | 299 | 2.0 | 2.0 | 0.00 | 0.19 | 0.19 | 32 | 1010.9 |
| 20260506025640 | 69 | 326 | 0.0 | 0.0 | 0.00 | 0.19 | 0.19 | 31 | 1010.9 |
| 20260506025136 | 69 | 266 | 1.0 | 1.0 | 0.00 | 0.19 | 0.19 | 31 | 1011.1 |
| 20260506024634 | 69 | 337 | 3.0 | 6.0 | 0.00 | 0.19 | 0.19 | 31 | 1010.9 |
| 20260506024130 | 68 | 338 | 2.0 | 2.0 | 0.00 | 0.19 | 0.19 | 31 | 1010.5 |
| 20260506023627 | 68 | 347 | 3.0 | 6.0 | 0.00 | 0.19 | 0.19 | 31 | 1010.4 |
| 20260506023124 | 69 | 268 | 2.0 | 2.0 | 0.00 | 0.19 | 0.19 | 30 | 1010.5 |
| 20260506022621 | 69 | 280 | 1.0 | 2.0 | 0.00 | 0.19 | 0.19 | 31 | 1010.3 |
| 20260506022119 | 69 | 283 | 2.0 | 2.0 | 0.00 | 0.19 | 0.19 | 30 | 1010.1 |
| 20260506021616 | 69 | 325 | 1.0 | 1.0 | 0.00 | 0.19 | 0.19 | 30 | 1010.1 |
| 20260506021113 | 69 | 330 | 4.0 | 7.0 | 0.00 | 0.19 | 0.19 | 30 | 1010.1 |
| 20260506020610 | 69 | 282 | 4.0 | 5.0 | 0.00 | 0.19 | 0.19 | 31 | 1009.9 |
| 20260506020108 | 70 | 322 | 5.0 | 6.0 | 0.00 | 0.19 | 0.19 | 31 | 1009.7 |
| 20260506015605 | 70 | 307 | 3.0 | 5.0 | 0.00 | 0.19 | 0.19 | 31 | 1009.8 |
| 20260506015102 | 71 | 312 | 3.0 | 5.0 | 0.00 | 0.19 | 0.19 | 31 | 1009.8 |
| 20260506014600 | 71 | 302 | 5.0 | 6.0 | 0.00 | 0.19 | 0.19 | 31 | 1009.7 |
| 20260506014055 | 71 | 292 | 7.0 | 9.0 | 0.00 | 0.19 | 0.19 | 31 | 1009.7 |
| 20260506013554 | 72 | 274 | 4.0 | 6.0 | 0.00 | 0.19 | 0.19 | 31 | 1009.7 |
| 20260506013050 | 73 | 309 | 4.0 | 9.0 | 0.00 | 0.19 | 0.19 | 31 | 1009.3 |
| 20260506012546 | 73 | 309 | 3.0 | 6.0 | 0.00 | 0.19 | 0.19 | 31 | 1009.7 |
| 20260506012043 | 73 | 292 | 4.0 | 3.0 | 0.00 | 0.19 | 0.19 | 29 | 1009.6 |
| 20260506011541 | 73 | 294 | 4.0 | 6.0 | 0.00 | 0.19 | 0.19 | 28 | 1009.7 |
| 20260506011036 | 74 | 305 | 2.0 | 2.0 | 0.00 | 0.19 | 0.19 | 28 | 1009.5 |
| 20260506010531 | 74 | 287 | 5.0 | 9.0 | 0.00 | 0.19 | 0.19 | 28 | 1009.5 |
| 20260506010027 | 74 | 335 | 3.0 | 5.0 | 0.00 | 0.19 | 0.19 | 28 | 1009.1 |
| 20260506005524 | 75 | 271 | 7.0 | 10.0 | 0.00 | 0.19 | 0.19 | 26 | 1009.0 |
| 20260506005020 | 75 | 246 | 3.0 | 3.0 | 0.00 | 0.19 | 0.19 | 26 | 1009.0 |
| 20260506004517 | 75 | 254 | 6.0 | 9.0 | 0.00 | 0.19 | 0.19 | 26 | 1009.0 |
| 20260506004014 | 75 | 307 | 2.0 | 2.0 | 0.00 | 0.19 | 0.19 | 26 | 1008.9 |
| 20260506003510 | 75 | 289 | 3.0 | 5.0 | 0.00 | 0.19 | 0.19 | 26 | 1009.2 |
| 20260506003006 | 75 | 315 | 5.0 | 7.0 | 0.00 | 0.19 | 0.19 | 26 | 1009.0 |
| 20260506002502 | 75 | 314 | 2.0 | 3.0 | 0.00 | 0.19 | 0.19 | 27 | 1008.9 |
| 20260506001958 | 76 | 249 | 2.0 | 2.0 | 0.00 | 0.19 | 0.19 | 26 | 1009.1 |
| 20260506001455 | 76 | 304 | 5.0 | 6.0 | 0.00 | 0.19 | 0.19 | 25 | 1008.9 |
| 20260506000952 | 76 | 290 | 4.0 | 5.0 | 0.00 | 0.19 | 0.19 | 26 | 1009.0 |
| 20260506000449 | 76 | 298 | 6.0 | 8.0 | 0.00 | 0.19 | 0.19 | 26 | 1008.8 |
| 20260505235946 | 77 | 267 | 6.0 | 11.0 | 0.00 | 0.19 | 0.19 | 26 | 1008.9 |
| 20260505235445 | 76 | 294 | 7.0 | 9.0 | 0.00 | 0.19 | 0.19 | 26 | 1008.5 |
| 20260505234941 | 74 | 274 | 4.0 | 6.0 | 0.00 | 0.19 | 0.19 | 27 | 1008.6 |
| 20260505234439 | 75 | 314 | 4.0 | 8.0 | 0.00 | 0.19 | 0.19 | 28 | 1008.5 |
| 20260505233935 | 76 | 254 | 7.0 | 9.0 | 0.00 | 0.19 | 0.19 | 26 | 1008.6 |
| 20260505233433 | 75 | 233 | 10.0 | 13.0 | 0.00 | 0.19 | 0.19 | 27 | 1008.5 |
| 20260505232930 | 74 | 294 | 3.0 | 3.0 | 0.00 | 0.19 | 0.19 | 29 | 1008.6 |
| 20260505232428 | 74 | 230 | 5.0 | 6.0 | 0.00 | 0.19 | 0.19 | 28 | 1008.5 |
| 20260505231925 | 76 | 227 | 2.0 | 3.0 | 0.00 | 0.19 | 0.19 | 28 | 1008.8 |
| 20260505231422 | 76 | 298 | 5.0 | 6.0 | 0.00 | 0.19 | 0.19 | 26 | 1008.6 |
| 20260505230920 | 75 | 222 | 2.0 | 2.0 | 0.00 | 0.19 | 0.19 | 26 | 1008.6 |
| 20260505230418 | 76 | 329 | 4.0 | 5.0 | 0.00 | 0.19 | 0.19 | 27 | 1008.6 |
| 20260505225914 | 77 | 236 | 5.0 | 7.0 | 0.00 | 0.19 | 0.19 | 25 | 1008.8 |
| 20260505225411 | 77 | 190 | 3.0 | 3.0 | 0.00 | 0.19 | 0.19 | 25 | 1008.5 |
| 20260505224906 | 77 | 295 | 2.0 | 3.0 | 0.00 | 0.19 | 0.19 | 26 | 1008.9 |
| 20260505224404 | 77 | 340 | 3.0 | 5.0 | 0.00 | 0.19 | 0.19 | 26 | 1008.9 |
| 20260505223901 | 76 | 251 | 9.0 | 9.0 | 0.00 | 0.19 | 0.19 | 26 | 1008.8 |
| 20260505223358 | 76 | 200 | 8.0 | 14.0 | 0.00 | 0.19 | 0.19 | 27 | 1009.0 |
| 20260505222853 | 77 | 267 | 6.0 | 8.0 | 0.00 | 0.19 | 0.19 | 25 | 1009.1 |
| 20260505222350 | 76 | 297 | 7.0 | 9.0 | 0.00 | 0.19 | 0.19 | 28 | 1009.1 |
| 20260505221847 | 77 | 301 | 7.0 | 9.0 | 0.00 | 0.19 | 0.19 | 26 | 1009.2 |
| 20260505221344 | 76 | 185 | 6.0 | 8.0 | 0.00 | 0.19 | 0.19 | 27 | 1009.3 |
| 20260505220841 | 77 | 272 | 5.0 | 7.0 | 0.00 | 0.19 | 0.19 | 28 | 1009.0 |
| 20260505220338 | 76 | 265 | 2.0 | 2.0 | 0.00 | 0.19 | 0.19 | 30 | 1009.2 |
| 20260505215836 | 76 | 270 | 7.0 | 10.0 | 0.00 | 0.19 | 0.19 | 28 | 1009.2 |
| 20260505215333 | 76 | 266 | 4.0 | 7.0 | 0.00 | 0.19 | 0.19 | 27 | 1009.5 |
| 20260505214831 | 77 | 280 | 9.0 | 13.0 | 0.00 | 0.19 | 0.19 | 29 | 1009.6 |
| 20260505214329 | 76 | 285 | 6.0 | 10.0 | 0.00 | 0.19 | 0.19 | 28 | 1009.6 |
| 20260505213825 | 76 | 304 | 9.0 | 15.0 | 0.00 | 0.19 | 0.19 | 27 | 1009.6 |
| 20260505213323 | 76 | 312 | 8.0 | 15.0 | 0.00 | 0.19 | 0.19 | 27 | 1009.5 |
| 20260505212819 | 76 | 288 | 3.0 | 5.0 | 0.00 | 0.19 | 0.19 | 29 | 1009.5 |
| 20260505212317 | 76 | 335 | 16.0 | 18.0 | 0.00 | 0.19 | 0.19 | 27 | 1009.7 |
| 20260505211812 | 76 | 301 | 5.0 | 8.0 | 0.00 | 0.19 | 0.19 | 30 | 1009.7 |